User: anonymous   Login
Location: Unspecified
(0.0000°N, 0.0000°E)
Time: 05:10:48
(UTC+02:00)
Language:

ADEOS II - Orbit

View from above orbital plane
View from above orbital plane
View from above satellite
View from above satellite

Ground track
Ground track

The orbit data is extracted from the following two-line orbital elements,

1 27597U 02056A   16241.92679311 +.00000054 +00000-0 +38905-4 0  9993
2 27597 098.3288 218.5747 0002235 095.1078 265.0359 14.27229364713737
Epoch (UTC): 28 August 2016 22:14:34
Eccentricity: 0.0002235
inclination: 98.3288°
perigee height: 799 km
apogee height: 802 km
right ascension of ascending node: 218.5747°
argument of perigee: 95.1078°
revolutions per day: 14.27229364
mean anomaly at epoch: 265.0359°
orbit number at epoch: 71373

The dashed part of the orbit path shows where the satellite is in the earth's shadow,  

DLR